Location: Arleux
(50.3632°N, 2.8721°E)
Time: 21:32:30
(UTC+00:00)

Okean 3 - Pass Details

Date: 15 December 2019
Orbit: 577 x 600 km, 82.5° (Epoch: 22 January)

Event Time Altitude Azimuth Distance (km) Brightness Sun altitude
Exits shadow 05:06:42 75° 3° (N) 610 3.4 -23.4°
Maximum altitude 05:07:02 87° 81° (E) 592 3.3 -23.4°
Drops below altitude 10° 05:11:15 10° 170° (S) 1,905 6.3 -22.7°
Sets 05:13:27 0° 171° (S) 2,804 7.2 -22.4°
